owner,sensor,date,latitude,longitude,vertical_datum,wind_speed,wind_to_direction,wind_speed_of_gust,qcFlag 
TABS,ioos:station:wmo:42045:1,2013-06-01T00:00:00Z,26.2168,-96.4998,4.0,6.172171417,127.2972497,7.43,'11111222,11111222,11111222' 
TABS,ioos:station:wmo:42045:1,2013-06-01T00:30:00Z,26.2168,-96.4998,4.0,6.188020685,126.7220862,7.42,'11111222,11111222,11111222' 
TABS,ioos:station:wmo:42045:1,2013-06-01T01:00:00Z,26.2168,-96.4998,4.0,6.644253156,126.3700723,7.44,'11111222,11111222,11111222' 
TABS,ioos:station:wmo:42045:1,2013-06-01T01:30:00Z,26.2168,-96.4998,4.0,7.920934288,131.4176086,9.16,'11111222,11111222,11111222' 
TABS,ioos:station:wmo:42045:1,2013-06-01T02:00:00Z,26.2168,-96.4998,4.0,7.696245838,133.4208727,9.15,'11111222,11111222,11111222' 
TABS,ioos:station:wmo:42045:1,2013-06-01T02:30:00Z,26.2168,-96.4998,4.0,7.813833886,132.5107686,9.2,'11111222,11111222,11111222' 
TABS,ioos:station:wmo:42045:1,2013-06-01T03:00:00Z,26.2168,-96.4998,4.0,7.963039621,134.0844775,9.24,'11111222,11111222,11111222' 
TABS,ioos:station:wmo:42045:1,2013-06-01T03:30:00Z,26.2168,-96.4998,4.0,7.884478423,137.4675427,9.05,'11111222,11111222,11111222' 
TABS,ioos:station:wmo:42045:1,2013-06-01T04:00:00Z,26.2168,-96.4998,4.0,8.668592735,144.531767,10.07,'11111222,11111222,11111222' 
TABS,ioos:station:wmo:42045:1,2013-06-01T04:30:00Z,26.2168,-96.4998,4.0,8.101586264,147.8599656,9.52,'11111222,11111222,11111222' 
TABS,ioos:station:wmo:42045:1,2013-06-01T05:00:00Z,26.2168,-96.4998,4.0,8.265863536,148.0022496,9.61,'11111222,11111222,11111222' 
TABS,ioos:station:wmo:42045:1,2013-06-01T05:30:00Z,26.2168,-96.4998,4.0,8.617934787,150.2224133,10.0,'11111222,11111222,11111222' 
TABS,ioos:station:wmo:42045:1,2013-06-01T06:00:00Z,26.2168,-96.4998,4.0,8.566615434,149.4838706,10.03,'11111222,11111222,11111222' 
TABS,ioos:station:wmo:42045:1,2013-06-01T06:30:00Z,26.2168,-96.4998,4.0,9.318030908,149.6376182,10.78,'11111222,11111222,11111222' 
TABS,ioos:station:wmo:42045:1,2013-06-01T07:00:00Z,26.2168,-96.4998,4.0,8.687116898,152.1372929,10.02,'11111222,11111222,11111222' 
TABS,ioos:station:wmo:42045:1,2013-06-01T07:30:00Z,26.2168,-96.4998,4.0,9.221241782,151.7121457,10.89,'11111222,11111222,11111222' 
TABS,ioos:station:wmo:42045:1,2013-06-01T08:00:00Z,26.2168,-96.4998,4.0,8.929529663,154.9562414,10.86,'11111222,11111222,11111222' 
TABS,ioos:station:wmo:42045:1,2013-06-01T08:30:00Z,26.2168,-96.4998,4.0,8.559725463,153.6447657,9.74,'11111222,11111222,11111222' 
TABS,ioos:station:wmo:42045:1,2013-06-01T09:00:00Z,26.2168,-96.4998,4.0,8.931074963,153.033556,10.37,'11111222,11111222,11111222' 
TABS,ioos:station:wmo:42045:1,2013-06-01T09:30:00Z,26.2168,-96.4998,4.0,8.971426865,152.9496767,10.74,'11111222,11111222,11111222' 
TABS,ioos:station:wmo:42045:1,2013-06-01T10:00:00Z,26.2168,-96.4998,4.0,8.350383225,151.3788656,10.04,'11111222,11111222,11111222' 
TABS,ioos:station:wmo:42045:1,2013-06-01T10:30:00Z,26.2168,-96.4998,4.0,8.317120896,150.9389832,9.62,'11111222,11111222,11111222' 
TABS,ioos:station:wmo:42045:1,2013-06-01T11:00:00Z,26.2168,-96.4998,4.0,8.709586672,151.1693096,10.87,'11111222,11111222,11111222' 
TABS,ioos:station:wmo:42045:1,2013-06-01T11:30:00Z,26.2168,-96.4998,4.0,8.484250114,150.7160994,9.85,'11111222,11111222,11111222' 
TABS,ioos:station:wmo:42045:1,2013-06-01T12:00:00Z,26.2168,-96.4998,4.0,8.35569267,149.5069234,10.06,'11111222,11111222,11111222' 
TABS,ioos:station:wmo:42045:1,2013-06-01T12:30:00Z,26.2168,-96.4998,4.0,9.116687995,150.5672087,11.13,'11111222,11111222,11111222' 
TABS,ioos:station:wmo:42045:1,2013-06-01T13:00:00Z,26.2168,-96.4998,4.0,8.716524537,153.9349655,10.2,'11111222,11111222,11111222' 
TABS,ioos:station:wmo:42045:1,2013-06-01T13:30:00Z,26.2168,-96.4998,4.0,7.851248308,158.4021233,9.77,'11111222,11111222,11111222' 
TABS,ioos:station:wmo:42045:1,2013-06-01T14:00:00Z,26.2168,-96.4998,4.0,5.161637337,181.4434001,7.18,'11111222,11111222,11111222' 
TABS,ioos:station:wmo:42045:1,2013-06-01T14:30:00Z,26.2168,-96.4998,4.0,7.904713784,148.501998,9.17,'11111222,11111222,11111222' 
TABS,ioos:station:wmo:42045:1,2013-06-01T15:00:00Z,26.2168,-96.4998,4.0,7.504831777,147.7925878,8.6,'11111222,11111222,11111222' 
TABS,ioos:station:wmo:42045:1,2013-06-01T15:30:00Z,26.2168,-96.4998,4.0,8.145925362,145.9590781,9.6,'11111222,11111222,11111222' 
TABS,ioos:station:wmo:42045:1,2013-06-01T16:00:00Z,26.2168,-96.4998,4.0,7.783084222,145.5751789,9.27,'11111222,11111222,11111222' 
TABS,ioos:station:wmo:42045:1,2013-06-01T16:30:00Z,26.2168,-96.4998,4.0,7.175409396,146.886038,8.32,'11111222,11111222,11111222' 
TABS,ioos:station:wmo:42045:1,2013-06-01T17:00:00Z,26.2168,-96.4998,4.0,6.97536379,146.4013479,8.38,'11111222,11111222,11111222' 
TABS,ioos:station:wmo:42045:1,2013-06-01T17:30:00Z,26.2168,-96.4998,4.0,6.33782297,144.5046522,7.44,'11111222,11111222,11111222' 
TABS,ioos:station:wmo:42045:1,2013-06-01T18:00:00Z,26.2168,-96.4998,4.0,6.415122758,146.1863662,7.77,'11111222,11111222,11111222' 
TABS,ioos:station:wmo:42045:1,2013-06-01T18:30:00Z,26.2168,-96.4998,4.0,6.850926945,145.7071319,8.32,'11111222,11111222,11111222' 
TABS,ioos:station:wmo:42045:1,2013-06-01T19:00:00Z,26.2168,-96.4998,4.0,6.532763581,141.4637678,7.64,'11111222,11111222,11111222' 
TABS,ioos:station:wmo:42045:1,2013-06-01T19:30:00Z,26.2168,-96.4998,4.0,6.278001274,139.5870918,7.31,'11111222,11111222,11111222' 
TABS,ioos:station:wmo:42045:1,2013-06-01T20:00:00Z,26.2168,-96.4998,4.0,5.737612744,131.6089842,6.69,'11111222,11111222,11111222' 
TABS,ioos:station:wmo:42045:1,2013-06-01T20:30:00Z,26.2168,-96.4998,4.0,7.051418297,133.7936651,8.28,'11111222,11111222,11111222' 
TABS,ioos:station:wmo:42045:1,2013-06-01T21:00:00Z,26.2168,-96.4998,4.0,6.094620579,129.541089,7.22,'11111222,11111222,11111222' 
TABS,ioos:station:wmo:42045:1,2013-06-01T21:30:00Z,26.2168,-96.4998,4.0,5.553017198,124.4344671,6.72,'11111222,11111222,11111222' 
TABS,ioos:station:wmo:42045:1,2013-06-01T22:00:00Z,26.2168,-96.4998,4.0,5.492003277,117.0786309,6.53,'11111222,11111222,11111222' 
TABS,ioos:station:wmo:42045:1,2013-06-01T22:30:00Z,26.2168,-96.4998,4.0,5.593969968,119.681712,6.29,'11111222,11111222,11111222' 
TABS,ioos:station:wmo:42045:1,2013-06-01T23:00:00Z,26.2168,-96.4998,4.0,7.089781379,120.7977901,8.09,'11111222,11111222,11111222' 
TABS,ioos:station:wmo:42045:1,2013-06-01T23:30:00Z,26.2168,-96.4998,4.0,7.573546065,117.9526884,8.58,'11111222,11111222,11111222' 
TABS,ioos:station:wmo:42045:1,2013-06-02T00:00:00Z,26.2168,-96.4998,4.0,7.67648357,117.967471,9.14,'11111222,11111222,11111222' 
TABS,ioos:station:wmo:42045:1,2013-06-02T00:30:00Z,26.2168,-96.4998,4.0,7.520671513,119.1215541,9.13,'11111222,11111222,11111222' 
TABS,ioos:station:wmo:42045:1,2013-06-02T01:00:00Z,26.2168,-96.4998,4.0,6.350196847,142.6792615,8.27,'11111222,11111222,11111222' 
TABS,ioos:station:wmo:42045:1,2013-06-02T01:30:00Z,26.2168,-96.4998,4.0,6.905048877,116.3056517,8.4,'11111222,11111222,11111222' 
TABS,ioos:station:wmo:42045:1,2013-06-02T02:00:00Z,26.2168,-96.4998,4.0,6.005405898,108.9482281,7.1,'11111222,11111222,11111222' 
TABS,ioos:station:wmo:42045:1,2013-06-02T02:30:00Z,26.2168,-96.4998,4.0,6.543913202,111.7042273,7.53,'11111222,11111222,11111222' 
TABS,ioos:station:wmo:42045:1,2013-06-02T03:00:00Z,26.2168,-96.4998,4.0,6.770819744,116.4897222,8.04,'11111222,11111222,11111222' 
TABS,ioos:station:wmo:42045:1,2013-06-02T03:30:00Z,26.2168,-96.4998,4.0,6.726797158,114.3174337,8.14,'11111222,11111222,11111222' 
TABS,ioos:station:wmo:42045:1,2013-06-02T04:00:00Z,26.2168,-96.4998,4.0,6.697297963,114.9965827,8.21,'11111222,11111222,11111222' 
TABS,ioos:station:wmo:42045:1,2013-06-02T04:30:00Z,26.2168,-96.4998,4.0,6.500992232,113.0948044,7.5,'11111222,11111222,11111222' 
TABS,ioos:station:wmo:42045:1,2013-06-02T05:00:00Z,26.2168,-96.4998,4.0,6.813582024,119.1611356,8.1,'11111222,11111222,11111222' 
TABS,ioos:station:wmo:42045:1,2013-06-02T05:30:00Z,26.2168,-96.4998,4.0,6.756359967,124.0196914,8.16,'11111222,11111222,11111222' 
TABS,ioos:station:wmo:42045:1,2013-06-02T06:00:00Z,26.2168,-96.4998,4.0,6.203394232,120.4096995,7.62,'11111222,11111222,11111222' 
TABS,ioos:station:wmo:42045:1,2013-06-02T06:30:00Z,26.2168,-96.4998,4.0,5.905294235,129.2965625,7.04,'11111222,11111222,11111222' 
TABS,ioos:station:wmo:42045:1,2013-06-02T07:00:00Z,26.2168,-96.4998,4.0,5.78883408,130.3761752,6.61,'11111222,11111222,11111222' 
TABS,ioos:station:wmo:42045:1,2013-06-02T07:30:00Z,26.2168,-96.4998,4.0,6.781887643,137.7493522,7.86,'11111222,11111222,11111222' 
TABS,ioos:station:wmo:42045:1,2013-06-02T08:00:00Z,26.2168,-96.4998,4.0,6.388027865,136.7129643,7.31,'11111222,11111222,11111222' 
TABS,ioos:station:wmo:42045:1,2013-06-02T08:30:00Z,26.2168,-96.4998,4.0,6.246935249,140.0655562,7.43,'11111222,11111222,11111222' 
TABS,ioos:station:wmo:42045:1,2013-06-02T09:00:00Z,26.2168,-96.4998,4.0,5.292003401,145.8597935,6.33,'11111222,11111222,11111222' 
TABS,ioos:station:wmo:42045:1,2013-06-02T09:30:00Z,26.2168,-96.4998,4.0,5.004078337,151.0791267,5.6,'11111222,11111222,11111222' 
TABS,ioos:station:wmo:42045:1,2013-06-02T10:00:00Z,26.2168,-96.4998,4.0,4.964886706,149.0959,5.67,'11111222,11111222,11111222' 
TABS,ioos:station:wmo:42045:1,2013-06-02T10:30:00Z,26.2168,-96.4998,4.0,5.295904078,149.2220686,6.09,'11111222,11111222,11111222' 
TABS,ioos:station:wmo:42045:1,2013-06-02T11:00:00Z,26.2168,-96.4998,4.0,5.766324653,145.8141679,6.73,'11111222,11111222,11111222' 
TABS,ioos:station:wmo:42045:1,2013-06-02T11:30:00Z,26.2168,-96.4998,4.0,5.175567602,154.7225473,5.84,'11111222,11111222,11111222' 
TABS,ioos:station:wmo:42045:1,2013-06-02T12:00:00Z,26.2168,-96.4998,4.0,5.458690319,147.0380236,6.7,'11111222,11111222,11111222' 
TABS,ioos:station:wmo:42045:1,2013-06-02T12:30:00Z,26.2168,-96.4998,4.0,4.244443426,145.0746249,4.92,'11111222,11111222,11111222' 
TABS,ioos:station:wmo:42045:1,2013-06-02T13:00:00Z,26.2168,-96.4998,4.0,3.613211868,140.0526103,4.51,'11111222,11111222,11111222' 
TABS,ioos:station:wmo:42045:1,2013-06-02T13:30:00Z,26.2168,-96.4998,4.0,4.433294486,148.7483882,5.17,'11111222,11111222,11111222' 
TABS,ioos:station:wmo:42045:1,2013-06-02T14:00:00Z,26.2168,-96.4998,4.0,4.288123133,145.6431615,4.72,'11111222,11111222,11111222' 
TABS,ioos:station:wmo:42045:1,2013-06-02T14:30:00Z,26.2168,-96.4998,4.0,3.196576293,131.0682189,3.67,'11111222,11111222,11111222' 
TABS,ioos:station:wmo:42045:1,2013-06-02T15:00:00Z,26.2168,-96.4998,4.0,2.810409223,106.1138015,3.31,'11111222,11111222,11111222' 
TABS,ioos:station:wmo:42045:1,2013-06-02T15:30:00Z,26.2168,-96.4998,4.0,2.524480145,96.14008896,3.04,'11111222,11111222,11111222' 
TABS,ioos:station:wmo:42045:1,2013-06-02T16:00:00Z,26.2168,-96.4998,4.0,2.356883536,85.61952887,3.02,'11111222,11111222,11111222' 
TABS,ioos:station:wmo:42045:1,2013-06-02T16:30:00Z,26.2168,-96.4998,4.0,2.117404071,75.50396303,2.85,'11111222,11111222,11111222' 
TABS,ioos:station:wmo:42045:1,2013-06-02T17:00:00Z,26.2168,-96.4998,4.0,2.128097742,40.42577375,2.81,'11111222,11111222,11111222' 
TABS,ioos:station:wmo:42045:1,2013-06-02T17:30:00Z,26.2168,-96.4998,4.0,3.55384299,15.17003209,4.34,'11111222,11111222,11111222' 
TABS,ioos:station:wmo:42045:1,2013-06-02T18:00:00Z,26.2168,-96.4998,4.0,3.652615501,14.26426848,4.73,'11111222,11111222,11111222' 
TABS,ioos:station:wmo:42045:1,2013-06-02T18:30:00Z,26.2168,-96.4998,4.0,4.803176033,10.67804193,5.75,'11111222,11111222,11111222' 
TABS,ioos:station:wmo:42045:1,2013-06-02T19:00:00Z,26.2168,-96.4998,4.0,5.124421919,9.094461395,6.04,'11111222,11111222,11111222' 
TABS,ioos:station:wmo:42045:1,2013-06-02T19:30:00Z,26.2168,-96.4998,4.0,6.507995083,12.24209211,7.96,'11111222,11111222,11111222' 
TABS,ioos:station:wmo:42045:1,2013-06-02T20:00:00Z,26.2168,-96.4998,4.0,6.103613684,358.0280952,7.28,'11111222,11111222,11111222' 
TABS,ioos:station:wmo:42045:1,2013-06-02T20:30:00Z,26.2168,-96.4998,4.0,8.159270801,37.88084346,10.75,'11111222,11111222,11111222' 
TABS,ioos:station:wmo:42045:1,2013-06-02T21:00:00Z,26.2168,-96.4998,4.0,7.483167778,75.05340067,9.48,'11111222,11111222,11111222' 
TABS,ioos:station:wmo:42045:1,2013-06-02T21:30:00Z,26.2168,-96.4998,4.0,4.167997121,113.9209813,8.21,'11111222,11111222,11111222' 
TABS,ioos:station:wmo:42045:1,2013-06-02T22:00:00Z,26.2168,-96.4998,4.0,2.473580401,117.7049561,6.81,'11111222,11111222,11111222' 
TABS,ioos:station:wmo:42045:1,2013-06-02T22:30:00Z,26.2168,-96.4998,4.0,5.249504739,65.58278014,6.51,'11111222,11111222,11111222' 
TABS,ioos:station:wmo:42045:1,2013-06-02T23:00:00Z,26.2168,-96.4998,4.0,4.612678181,68.10595714,5.96,'11111222,11111222,11111222' 
TABS,ioos:station:wmo:42045:1,2013-06-02T23:30:00Z,26.2168,-96.4998,4.0,3.450579661,85.51173772,4.15,'11111222,11111222,11111222' 
TABS,ioos:station:wmo:42045:1,2013-06-03T00:00:00Z,26.2168,-96.4998,4.0,2.811440912,91.83488566,3.7,'11111222,11111222,11111222' 
TABS,ioos:station:wmo:42045:1,2013-06-03T00:30:00Z,26.2168,-96.4998,4.0,2.512468905,95.7110007,3.04,'11111222,11111222,11111222' 
TABS,ioos:station:wmo:42045:1,2013-06-03T01:00:00Z,26.2168,-96.4998,4.0,2.928514982,67.7259146,3.96,'11111222,11111222,11111222' 
TABS,ioos:station:wmo:42045:1,2013-06-03T01:30:00Z,26.2168,-96.4998,4.0,4.093336048,41.83084201,5.05,'11111222,11111222,11111222' 
TABS,ioos:station:wmo:42045:1,2013-06-03T02:00:00Z,26.2168,-96.4998,4.0,5.091365239,18.79056425,6.0,'11111222,11111222,11111222' 
TABS,ioos:station:wmo:42045:1,2013-06-03T02:30:00Z,26.2168,-96.4998,4.0,5.376364943,41.60668118,7.06,'11111222,11111222,11111222' 
TABS,ioos:station:wmo:42045:1,2013-06-03T03:00:00Z,26.2168,-96.4998,4.0,6.036795508,52.19960199,7.44,'11111222,11111222,11111222' 
TABS,ioos:station:wmo:42045:1,2013-06-03T03:30:00Z,26.2168,-96.4998,4.0,6.177289049,64.59610943,7.44,'11111222,11111222,11111222' 
TABS,ioos:station:wmo:42045:1,2013-06-03T04:00:00Z,26.2168,-96.4998,4.0,6.39415358,71.39465712,7.67,'11111222,11111222,11111222' 
TABS,ioos:station:wmo:42045:1,2013-06-03T04:30:00Z,26.2168,-96.4998,4.0,6.1916476,78.16337373,7.73,'11111222,11111222,11111222' 
TABS,ioos:station:wmo:42045:1,2013-06-03T05:00:00Z,26.2168,-96.4998,4.0,5.623210827,88.06327517,6.61,'11111222,11111222,11111222' 
TABS,ioos:station:wmo:42045:1,2013-06-03T05:30:00Z,26.2168,-96.4998,4.0,5.185248306,99.09940535,6.07,'11111222,11111222,11111222' 
TABS,ioos:station:wmo:42045:1,2013-06-03T06:00:00Z,26.2168,-96.4998,4.0,4.717849086,94.98593105,5.53,'11111222,11111222,11111222' 
TABS,ioos:station:wmo:42045:1,2013-06-03T06:30:00Z,26.2168,-96.4998,4.0,3.822800021,106.2545925,4.43,'11111222,11111222,11111222' 
TABS,ioos:station:wmo:42045:1,2013-06-03T07:00:00Z,26.2168,-96.4998,4.0,3.328453094,96.03644332,4.06,'11111222,11111222,11111222' 
TABS,ioos:station:wmo:42045:1,2013-06-03T07:30:00Z,26.2168,-96.4998,4.0,2.392822601,73.98843904,2.96,'11111222,11111222,11111222' 
TABS,ioos:station:wmo:42045:1,2013-06-03T08:00:00Z,26.2168,-96.4998,4.0,2.128966886,62.59206774,2.73,'11111222,11111222,11111222' 
TABS,ioos:station:wmo:42045:1,2013-06-03T08:30:00Z,26.2168,-96.4998,4.0,2.351042322,41.89633225,2.89,'11111222,11111222,11111222' 
TABS,ioos:station:wmo:42045:1,2013-06-03T09:00:00Z,26.2168,-96.4998,4.0,2.822374887,37.80346571,3.41,'11111222,11111222,11111222' 
TABS,ioos:station:wmo:42045:1,2013-06-03T09:30:00Z,26.2168,-96.4998,4.0,3.02887768,33.00771949,4.15,'11111222,11111222,11111222' 
TABS,ioos:station:wmo:42045:1,2013-06-03T10:00:00Z,26.2168,-96.4998,4.0,3.011444836,39.61038515,3.76,'11111222,11111222,11111222' 
TABS,ioos:station:wmo:42045:1,2013-06-03T10:30:00Z,26.2168,-96.4998,4.0,2.865815765,38.90929609,3.55,'11111222,11111222,11111222' 
TABS,ioos:station:wmo:42045:1,2013-06-03T11:00:00Z,26.2168,-96.4998,4.0,3.522059057,48.7984469,4.04,'11111222,11111222,11111222' 
TABS,ioos:station:wmo:42045:1,2013-06-03T11:30:00Z,26.2168,-96.4998,4.0,3.713892836,33.13352736,4.19,'11111222,11111222,11111222' 
TABS,ioos:station:wmo:42045:1,2013-06-03T12:00:00Z,26.2168,-96.4998,4.0,3.564000561,36.9017534,4.14,'11111222,11111222,11111222' 
TABS,ioos:station:wmo:42045:1,2013-06-03T12:30:00Z,26.2168,-96.4998,4.0,5.261606219,60.51139393,6.55,'11111222,11111222,11111222' 
TABS,ioos:station:wmo:42045:1,2013-06-03T13:00:00Z,26.2168,-96.4998,4.0,3.862499191,22.04906035,4.49,'11111222,11111222,11111222' 
TABS,ioos:station:wmo:42045:1,2013-06-03T13:30:00Z,26.2168,-96.4998,4.0,3.813449882,15.2021627,4.44,'11111222,11111222,11111222' 
TABS,ioos:station:wmo:42045:1,2013-06-03T14:00:00Z,26.2168,-96.4998,4.0,3.71856155,7.10567794,4.56,'11111222,11111222,11111222' 
TABS,ioos:station:wmo:42045:1,2013-06-03T14:30:00Z,26.2168,-96.4998,4.0,4.036285421,14.9311718,5.33,'11111222,11111222,11111222' 
TABS,ioos:station:wmo:42045:1,2013-06-03T15:00:00Z,26.2168,-96.4998,4.0,5.196017706,2.757563753,6.25,'11111222,11111222,11111222' 
TABS,ioos:station:wmo:42045:1,2013-06-03T15:30:00Z,26.2168,-96.4998,4.0,4.657692562,22.60067653,6.0,'11111222,11111222,11111222' 
TABS,ioos:station:wmo:42045:1,2013-06-03T16:00:00Z,26.2168,-96.4998,4.0,4.212956207,19.55293672,5.34,'11111222,11111222,11111222' 
TABS,ioos:station:wmo:42045:1,2013-06-03T16:30:00Z,26.2168,-96.4998,4.0,4.260105632,33.8016837,5.31,'11111222,11111222,11111222' 
TABS,ioos:station:wmo:42045:1,2013-06-03T17:00:00Z,26.2168,-96.4998,4.0,3.945339022,27.79884767,4.76,'11111222,11111222,11111222' 
TABS,ioos:station:wmo:42045:1,2013-06-03T17:30:00Z,26.2168,-96.4998,4.0,3.664928376,31.04390737,4.59,'11111222,11111222,11111222' 
TABS,ioos:station:wmo:42045:1,2013-06-03T18:00:00Z,26.2168,-96.4998,4.0,3.631101761,42.43259282,4.7,'11111222,11111222,11111222' 
TABS,ioos:station:wmo:42045:1,2013-06-03T18:30:00Z,26.2168,-96.4998,4.0,5.023544565,82.45017497,6.02,'11111222,11111222,11111222' 
TABS,ioos:station:wmo:42045:1,2013-06-03T19:00:00Z,26.2168,-96.4998,4.0,4.772965535,29.35747443,5.85,'11111222,11111222,11111222' 
TABS,ioos:station:wmo:42045:1,2013-06-03T19:30:00Z,26.2168,-96.4998,4.0,4.55329551,31.07137494,5.5,'11111222,11111222,11111222' 
TABS,ioos:station:wmo:42045:1,2013-06-03T20:00:00Z,26.2168,-96.4998,4.0,4.083442175,58.7230701,5.98,'11111222,11111222,11111222' 
TABS,ioos:station:wmo:42045:1,2013-06-03T20:30:00Z,26.2168,-96.4998,4.0,4.534423888,30.92013355,5.42,'11111222,11111222,11111222' 
TABS,ioos:station:wmo:42045:1,2013-06-03T21:00:00Z,26.2168,-96.4998,4.0,5.083512565,35.47187357,8.67,'11111222,11111222,11111222' 
TABS,ioos:station:wmo:42045:1,2013-06-03T21:30:00Z,26.2168,-96.4998,4.0,4.663743132,47.34584166,8.8,'11111222,11111222,11111222' 
TABS,ioos:station:wmo:42045:1,2013-06-03T22:00:00Z,26.2168,-96.4998,4.0,4.698137929,106.6996261,5.98,'11111222,11111222,11111222' 
TABS,ioos:station:wmo:42045:1,2013-06-03T22:30:00Z,26.2168,-96.4998,4.0,4.824448155,61.25649193,5.93,'11111222,11111222,11111222' 
TABS,ioos:station:wmo:42045:1,2013-06-03T23:00:00Z,26.2168,-96.4998,4.0,4.422408846,50.0448076,5.42,'11111222,11111222,11111222' 
TABS,ioos:station:wmo:42045:1,2013-06-03T23:30:00Z,26.2168,-96.4998,4.0,4.221326806,56.00843335,5.1,'11111222,11111222,11111222' 
TABS,ioos:station:wmo:42045:1,2013-06-04T00:00:00Z,26.2168,-96.4998,4.0,4.316769626,70.93507623,5.11,'11111222,11111222,11111222' 
TABS,ioos:station:wmo:42045:1,2013-06-04T00:30:00Z,26.2168,-96.4998,4.0,4.639234851,83.56393224,5.94,'11111222,11111222,11111222' 
TABS,ioos:station:wmo:42045:1,2013-06-04T01:00:00Z,26.2168,-96.4998,4.0,5.235885789,84.29988787,6.27,'11111222,11111222,11111222' 
TABS,ioos:station:wmo:42045:1,2013-06-04T01:30:00Z,26.2168,-96.4998,4.0,4.861481256,88.58515918,6.19,'11111222,11111222,11111222' 
TABS,ioos:station:wmo:42045:1,2013-06-04T02:00:00Z,26.2168,-96.4998,4.0,5.019322663,84.97051726,5.87,'11111222,11111222,11111222' 
TABS,ioos:station:wmo:42045:1,2013-06-04T02:30:00Z,26.2168,-96.4998,4.0,4.612352979,146.1379563,5.95,'11111222,11111222,11111222' 
TABS,ioos:station:wmo:42045:1,2013-06-04T03:00:00Z,26.2168,-96.4998,4.0,4.797707786,141.6016038,6.02,'11111222,11111222,11111222' 
TABS,ioos:station:wmo:42045:1,2013-06-04T03:30:00Z,26.2168,-96.4998,4.0,5.119726555,100.1250689,6.15,'11111222,11111222,11111222' 
TABS,ioos:station:wmo:42045:1,2013-06-04T04:00:00Z,26.2168,-96.4998,4.0,5.499681809,107.6775791,6.45,'11111222,11111222,11111222' 
TABS,ioos:station:wmo:42045:1,2013-06-04T04:30:00Z,26.2168,-96.4998,4.0,5.85918083,115.6907352,6.76,'11111222,11111222,11111222' 
TABS,ioos:station:wmo:42045:1,2013-06-04T05:00:00Z,26.2168,-96.4998,4.0,5.372494765,111.1680477,6.44,'11111222,11111222,11111222' 
TABS,ioos:station:wmo:42045:1,2013-06-04T05:30:00Z,26.2168,-96.4998,4.0,5.521231747,118.3292242,6.27,'11111222,11111222,11111222' 
TABS,ioos:station:wmo:42045:1,2013-06-04T06:00:00Z,26.2168,-96.4998,4.0,5.475509109,113.0065984,6.47,'11111222,11111222,11111222' 
TABS,ioos:station:wmo:42045:1,2013-06-04T06:30:00Z,26.2168,-96.4998,4.0,4.894772722,120.4421549,5.87,'11111222,11111222,11111222' 
TABS,ioos:station:wmo:42045:1,2013-06-04T07:00:00Z,26.2168,-96.4998,4.0,4.62533242,121.1128142,5.34,'11111222,11111222,11111222' 
TABS,ioos:station:wmo:42045:1,2013-06-04T07:30:00Z,26.2168,-96.4998,4.0,3.277575323,121.6536583,4.3,'11111222,11111222,11111222' 
TABS,ioos:station:wmo:42045:1,2013-06-04T08:00:00Z,26.2168,-96.4998,4.0,4.556983651,146.7286852,5.23,'11111222,11111222,11111222' 
TABS,ioos:station:wmo:42045:1,2013-06-04T08:30:00Z,26.2168,-96.4998,4.0,3.073190525,205.2310443,3.81,'11111222,11111222,11111222' 
TABS,ioos:station:wmo:42045:1,2013-06-04T09:00:00Z,26.2168,-96.4998,4.0,3.518138712,212.1090963,4.46,'11111222,11111222,11111222' 
TABS,ioos:station:wmo:42045:1,2013-06-04T09:30:00Z,26.2168,-96.4998,4.0,4.041088962,150.0091943,4.77,'11111222,11111222,11111222' 
TABS,ioos:station:wmo:42045:1,2013-06-04T10:00:00Z,26.2168,-96.4998,4.0,3.546448928,153.724226,4.55,'11111222,11111222,11111222' 
TABS,ioos:station:wmo:42045:1,2013-06-04T10:30:00Z,26.2168,-96.4998,4.0,4.047937747,166.1356459,4.82,'11111222,11111222,11111222' 
TABS,ioos:station:wmo:42045:1,2013-06-04T11:00:00Z,26.2168,-96.4998,4.0,4.512704289,168.3666037,5.53,'11111222,11111222,11111222' 
TABS,ioos:station:wmo:42045:1,2013-06-04T11:30:00Z,26.2168,-96.4998,4.0,3.420321622,168.361778,4.14,'11111222,11111222,11111222' 
TABS,ioos:station:wmo:42045:1,2013-06-04T12:00:00Z,26.2168,-96.4998,4.0,2.711180555,188.6981507,4.51,'11111222,11111222,11111222' 
TABS,ioos:station:wmo:42045:1,2013-06-04T12:30:00Z,26.2168,-96.4998,4.0,2.792937522,146.53781,3.37,'11111222,11111222,11111222' 
TABS,ioos:station:wmo:42045:1,2013-06-04T13:00:00Z,26.2168,-96.4998,4.0,1.692837854,148.2819161,2.13,'11111222,11111222,11111222' 
TABS,ioos:station:wmo:42045:1,2013-06-04T13:30:00Z,26.2168,-96.4998,4.0,2.43846263,157.3261754,3.16,'11111222,11111222,11111222' 
TABS,ioos:station:wmo:42045:1,2013-06-04T14:00:00Z,26.2168,-96.4998,4.0,1.92961136,130.3761752,2.61,'11111222,11111222,11111222' 
TABS,ioos:station:wmo:42045:1,2013-06-04T14:30:00Z,26.2168,-96.4998,4.0,1.704230031,144.0717921,2.77,'11111222,11111222,11111222' 
TABS,ioos:station:wmo:42045:1,2013-06-04T15:00:00Z,26.2168,-96.4998,4.0,1.498832879,118.27522,2.39,'11111222,11111222,11111222' 
TABS,ioos:station:wmo:42045:1,2013-06-04T15:30:00Z,26.2168,-96.4998,4.0,1.129468902,110.2001803,1.86,'11111222,11111222,11111222' 
TABS,ioos:station:wmo:42045:1,2013-06-04T16:00:00Z,26.2168,-96.4998,4.0,1.002247474,77.90485029,1.75,'11111222,11111222,11111222' 
TABS,ioos:station:wmo:42045:1,2013-06-04T16:30:00Z,26.2168,-96.4998,4.0,1.029028668,34.30749716,1.95,'11111222,11111222,11111222' 
TABS,ioos:station:wmo:42045:1,2013-06-04T17:00:00Z,26.2168,-96.4998,4.0,0.921954446,40.60098924,1.86,'11111222,11111222,11111222' 
TABS,ioos:station:wmo:42045:1,2013-06-04T17:30:00Z,26.2168,-96.4998,4.0,1.626068879,39.76015288,2.47,'11111222,11111222,11111222' 
TABS,ioos:station:wmo:42045:1,2013-06-04T18:00:00Z,26.2168,-96.4998,4.0,2.189086567,41.48108107,2.89,'11111222,11111222,11111222' 
TABS,ioos:station:wmo:42045:1,2013-06-04T18:30:00Z,26.2168,-96.4998,4.0,2.428353352,47.83708838,3.2,'11111222,11111222,11111222' 